Regional Weather Roundup
Issued by NWS

Home | Current Version | Previous Version | Text Only | Print | Product List | Glossary Off
Versions: 1 2 3 4 5 6 7 8 9 10 11 12 13 14 15 16 17 18 19 20 21 22 23 24 25 26 27 28 29 30 31 32 33 34 35 36 37 38 39 40 41 42 43 44 45 46 47 48 49 50

000
ASUS43 KDTX 232301
RWRMI
MICHIGAN HOURLY REGIONAL WEATHER ROUNDUP
NATIONAL WEATHER SERVICE DETROIT/PONTIAC MI
600 PM EST FRI FEB 23 2018

NOTE: "FAIR" INDICATES FEW OR NO CLOUDS BELOW 12,000 FEET WITH NO
SIGNIFICANT WEATHER AND/OR OBSTRUCTION TO VISIBILITY.

MIZ047>049-052>055-059>063-066>070-074>076-081>083-240000-
SOUTHEAST LOWER MICHIGAN

CITY           SKY/WX    TMP DP  RH WIND       PRES   REMARKS
ADRIAN         CLOUDY    46  43  89 W12       30.17R
ALMA           CLOUDY    40  38  93 W14       30.15R WCI  32
ANN ARBOR      CLOUDY    45  43  93 SW14      30.14R
BAD AXE        CLOUDY    41  40  97 W16       30.08R FOG
CARO           CLOUDY    42  40  91 SW14G21   30.10R
DETROIT CITY   CLOUDY    47  43  86 W8        30.13R
DETROIT        CLOUDY    48  44  86 W15       30.14R
FLINT          CLOUDY    43  40  89 W13G23    30.13R
GROSSE ILE     CLOUDY    48  44  88 W8        30.13S
HILLSDALE      CLOUDY    43  41  93 W13       30.16R FOG
HOWELL         CLOUDY    43  41  92 W14G21    30.14R

CITY           SKY/WX    TMP DP  RH WIND       PRES   REMARKS
JACKSON        CLOUDY    43  41  93 SW15      30.16R
LAMBERTVILLE   CLOUDY    47  44  88 W9        30.16R
LANSING        CLOUDY    41  39  93 W16G23    30.16R
LAPEER         CLOUDY    44  42  91 W17G23    30.11R
MASON          CLOUDY    43  38  81 W10       30.15R
MONROE         CLOUDY    47  44  88 W7G20     30.15R
MT. CLEMENS    CLOUDY    47  47 100 W8        30.11R
PONTIAC        CLOUDY    44  43  96 W13       30.11R
PORT HOPE        N/A     42  39  89 W8        30.05R
PORT HURON     CLOUDY    46  41  81 SW5       30.11R
TRI CITIES     CLOUDY    41  38  89 W21       30.12R
MIDLAND        CLOUDY    41  37  86 W16       30.11R
TROY           CLOUDY    47  43  88 W10G18    30.14R
SAGINAW HB     CLOUDY    41  37  87 W12       30.11R FOG
$$
MIZ043>046-050>051-056>058-064>065-071>073-077>080-240000-
SOUTHWEST LOWER MICHIGAN

CITY           SKY/WX    TMP DP  RH WIND       PRES   REMARKS
BATTLE CREEK   CLOUDY    40  38  93 W14       30.19R WCI  32
BENTON HARBOR  CLOUDY    38  34  85 W10       30.22S WCI  31
BIG RAPIDS     CLOUDY    36  31  83 W7G17     30.15R WCI  30
COLDWATER      CLOUDY    42  42 100 W13       30.18R FOG
HOLLAND        CLOUDY    38  35  89 W10       30.21R WCI  31
GRAND RAPIDS   LGT RAIN  39  38  96 W14       30.18R WCI  31
IONIA          CLOUDY    40  37  90 W20G25    30.15R WCI  30
KALAMAZOO      CLOUDY    41  37  86 W15       30.20R
LUDINGTON      CLOUDY    36  34  93 W8        30.16R WCI  29
MARSHALL       CLOUDY    41  40  98 W16       30.18R
MOUNT PLEASANT CLOUDY    40  37  88 W10       30.12R WCI  34
MUSKEGON       CLOUDY    38  34  85 W7        30.20R WCI  33
SOUTH HAVEN    CLOUDY    38  36  91 W7        30.22R WCI  33
$$
MIZ016>042-240000-
NORTHERN LOWER MICHIGAN

CITY           SKY/WX    TMP DP  RH WIND       PRES   REMARKS
ALPENA         CLOUDY    40  35  83 W13G23    30.02R WCI  32
BEAVER ISLAND  CLOUDY    35  33  94 SW10      30.05R WCI  27
BELLAIRE       CLOUDY    37  33  88 SW7       30.09R WCI  31
CADILLAC       CLOUDY    34  32  92 W10G20    30.10R WCI  26
CHARLEVOIX     CLOUDY    36  34  93 SW12      30.09R WCI  27
FRANKFORT      CLOUDY    38  33  82 W9G16     30.13R WCI  32
GAYLORD        CLOUDY    34  33  96 W17G24    30.03R WCI  23
GRAYLING       CLOUDY    36  33  88 W15G22    30.06R WCI  26
HARBOR SPRINGS CLOUDY    33  33  98 W9        30.05R WCI  26
HOUGHTON LAKE  CLOUDY    36  33  89 W14       30.08R WCI  27
MANISTEE       CLOUDY    37  32  82 W9        30.15R WCI  30
OSCODA         CLOUDY    41  37  85 W13G20    30.04R
PELLSTON       CLOUDY    36  32  85 W13       30.04R WCI  27
ROGERS CITY    CLOUDY    37  32  84 W13G20    30.03R WCI  28
TRAVERSE CITY  CLOUDY    39  32  76 W10       30.10R WCI  32
$$
MIZ007>008-015-240000-
EASTERN UPPER MICHIGAN

CITY           SKY/WX    TMP DP  RH WIND       PRES   REMARKS
KINROSS        CLOUDY    34  32  92 W7        30.00R WCI  28
MACKINAC ISLAN CLOUDY    33  33  99 W12G18    30.01R WCI  25
NEWBERRY       LGT SNOW  32  31  97 W14       30.02R WCI  22
S. S. MARIE    CLOUDY    34  29  82 NW13      29.98R WCI  25
MUNISING         N/A     32  28  85 NW9       30.06R WCI  24
$$
MIZ004>006-011>014-085-240000-
CENTRAL UPPER MICHIGAN

CITY           SKY/WX    TMP DP  RH WIND       PRES   REMARKS
MANISTIQUE     CLOUDY    35  33  94 W9G18     30.04R WCI  28
ESCANABA       CLOUDY    36  25  64 W15       30.07R WCI  27
MENOMINEE      CLOUDY    36  29  75 W5        30.12R WCI  32
SAWYER-GWINN   CLOUDY    30  23  74 W16G22    30.04R WCI  19
$$
MIZ001>003-009>011-084-240000-
WESTERN UPPER MICHIGAN

CITY           SKY/WX    TMP DP  RH WIND       PRES   REMARKS
IRON MOUNTAIN  MOCLDY    33  24  69 W14G25    30.05R WCI  23
HOUGHTON       FLURRIES  29  24  82 W18       30.03R WCI  16
COPPER HARBOR    N/A     30  25  81 NW10G18   30.04R WCI  21
IRONWOOD       CLOUDY    28  22  78 W12       30.10R WCI  18
$$

ABBREVIATIONS USED IN REMARKS
   TC - TEMPERATURE IN CELSIUS
  WCI - WIND CHILL INDEX
   HX - HEAT INDEX
  VSB - VISIBILITY





USA.gov is the U.S. government's official web portal to all federal, state and local government web resources and services.